Wind_Speed
69 67 66 62 60 54 54 54 54 54 51 51 48 45 42 40 43 38 34 30 27 29 27 19 17 19 18 16 13 11 11 11 12 11 12 13 15 15 14 16 17 17 21 20 22 20 21 23 22
72 72 70 66 61 58 59 61 58 56 56 53 51 46 45 41 40 35 28 27 30 30 29 27 24 23 21 19 18 17 16 14 16 16 12 12 13 15 18 18 19 18 24 25 23 21 22 22 27
74 75 72 70 61 62 67 67 63 57 56 54 52 50 47 47 42 37 32 29 28 31 32 27 26 26 27 27 24 22 21 17 17 18 18 16 15 17 18 21 22 24 25 27 29 30 29 30 30
77 76 73 69 66 70 74 72 67 62 59 59 54 53 51 47 43 43 37 33 28 30 28 33 28 29 30 31 29 27 24 20 20 21 20 20 20 20 20 21 24 23 24 29 31 32 33 33 31
79 78 73 69 73 75 78 77 71 67 60 58 58 55 53 53 46 44 36 35 34 33 26 28 34 34 35 34 32 30 28 23 23 24 21 21 22 23 22 22 24 27 28 28 31 34 38 39 39
74 79 73 71 77 80 83 83 79 71 68 63 61 58 56 56 52 44 39 35 37 40 37 35 33 36 38 36 32 29 26 26 27 26 25 26 26 25 25 27 30 31 33 32 31 31 33 37 36
65 74 79 77 82 86 86 90 83 77 71 68 64 63 62 58 54 48 47 42 40 40 40 42 37 38 40 41 38 35 33 32 30 29 28 30 31 32 33 34 33 34 35 36 35 31 32 35 37
69 69 77 82 85 89 91 92 90 81 76 70 66 65 63 60 54 43 44 48 48 48 46 49 45 40 44 40 40 36 36 33 34 31 32 33 35 35 36 37 38 39 41 41 38 39 39 39 40
76 71 70 81 88 90 92 95 96 87 76 73 70 68 63 55 55 52 46 44 52 45 49 49 44 44 43 40 41 40 36 36 37 35 36 38 39 41 44 44 44 45 45 43 44 45 45 46 47
78 74 68 72 89 91 91 99 99 91 80 76 72 72 67 63 59 58 55 45 41 50 43 45 46 46 50 45 43 39 35 37 38 39 43 42 46 49 51 52 52 53 50 49 51 49 50 51 50
83 78 77 73 80 91 94 98 100 94 86 81 78 75 75 70 68 60 59 50 50 56 50 43 48 48 51 49 47 48 43 42 42 46 49 52 51 53 52 53 55 54 53 54 54 56 56 56 56
90 83 85 80 77 80 94 98 102 97 91 85 82 76 75 75 70 72 65 64 57 62 50 46 47 50 50 49 50 52 49 48 50 51 51 55 55 57 59 57 58 59 60 61 59 61 62 61 59
96 92 91 87 81 78 85 95 106 97 95 91 86 82 78 76 75 69 60 61 57 60 55 49 50 49 51 50 52 49 46 46 53 50 52 51 57 67 63 60 61 64 65 66 68 67 67 66 64
98 97 96 93 87 82 82 88 100 99 97 94 92 87 83 83 80 78 79 72 66 62 57 57 57 57 55 56 55 53 49 49 51 52 54 62 60 56 57 59 66 67 70 69 69 69 68 68 68
102 102 101 97 92 86 88 87 82 102 99 95 97 95 92 86 84 82 84 73 67 68 64 63 60 65 58 60 56 56 58 55 52 52 57 63 66 62 59 67 73 73 73 72 72 69 66 71 76
109 106 107 103 98 93 92 80 79 104 99 97 98 99 94 89 89 87 83 80 79 74 67 66 63 63 60 61 59 59 49 47 53 57 68 64 65 67 70 66 73 77 79 77 72 70 75 78 70
116 112 112 110 106 100 91 83 85 90 101 100 96 100 99 95 93 91 87 87 84 79 78 73 67 64 56 53 43 40 47 53 56 60 65 62 55 56 58 52 62 65 71 71 74 75 77 73 72
122 118 117 115 111 105 96 90 91 88 101 102 100 98 100 98 97 96 94 90 87 90 83 82 73 67 64 57 52 53 56 54 55 59 50 55 49 49 57 62 66 66 69 74 78 74 72 68 67
122 121 119 117 115 108 102 98 99 93 92 99 102 97 100 98 97 97 94 91 92 90 91 88 81 70 62 63 56 55 58 53 47 37 49 48 51 55 56 61 57 61 64 65 61 54 56 59 60
118 121 119 119 118 111 106 100 104 98 88 99 96 100 97 99 96 93 94 95 96 94 95 91 81 75 74 65 54 56 48 45 51 49 43 38 42 71 58 57 61 59 57 60 58 55 59 59 64
113 122 122 124 119 113 111 107 110 101 92 94 92 95 98 96 94 91 91 93 97 100 96 91 85 80 73 66 58 51 44 49 36 37 31 32 56 55 55 56 52 65 70 64 61 61 65 71 73
108 122 128 129 120 117 117 110 112 105 91 87 91 86 89 92 92 91 91 88 94 99 93 91 90 85 77 67 62 55 42 47 19 26 29 39 59 49 56 55 54 65 70 78 72 72 72 91 101
104 119 129 131 126 121 116 113 114 105 98 87 87 84 86 83 88 87 88 90 92 92 94 92 88 86 80 72 62 56 45 32 32 45 58 52 57 59 57 62 65 69 78 84 81 91 97 103 96
99 112 126 133 130 127 120 113 118 107 95 82 84 80 73 70 76 87 89 90 89 92 91 90 89 82 82 72 65 61 54 51 47 48 49 60 66 68 71 78 84 87 93 99 102 109 110 113 120
89 108 123 134 138 125 119 116 115 101 91 82 78 77 74 67 60 67 83 90 90 91 87 89 87 83 76 74 76 73 64 63 64 73 55 54 68 80 89 90 92 95 96 106 117 125 127 128 138
84 99 117 126 138 125 123 119 113 98 87 82 80 82 79 71 66 64 69 77 84 84 87 86 84 84 81 78 75 81 80 79 86 82 80 80 83 84 90 101 108 107 116 119 129 135 139 140 143
74 87 108 114 133 128 126 112 108 101 94 89 85 85 81 77 72 70 68 66 71 75 77 80 82 85 81 79 77 82 86 87 90 89 91 93 96 96 106 112 114 116 126 133 136 140 141 140 143
68 89 96 109 132 134 123 115 109 106 100 92 85 80 77 75 75 71 65 60 59 60 67 72 77 78 79 78 78 81 82 89 94 91 94 98 100 110 113 115 123 120 131 135 135 141 139 139 135
61 70 82 106 122 129 121 118 109 103 94 83 77 74 74 75 74 70 64 58 54 55 55 61 65 73 78 80 84 82 81 84 91 98 102 104 105 110 113 119 120 129 128 131 134 126 128 128 129
56 70 81 98 112 121 118 109 103 97 91 81 76 72 74 75 73 69 64 60 56 54 51 48 49 47 56 68 73 80 84 84 88 92 99 102 108 112 114 115 123 123 123 119 116 115 119 107 103
Wind_Direction
225 226 224 225 225 225 224 227 223 213 203 204 210 210 212 215 216 222 217 217 219 230 239 238 246 254 251 243 234 228 230 249 265 267 269 275 285 295 304 312 303 309 324 325 323 327 328 323 329
226 224 224 223 225 224 226 224 225 223 210 208 208 212 214 214 219 221 212 220 218 227 240 250 238 244 250 243 246 251 255 251 260 270 276 287 292 289 291 298 302 310 309 307 311 316 313 315 323
226 226 225 223 221 225 225 224 222 222 219 211 210 211 214 213 213 210 221 224 225 236 241 246 249 240 249 247 244 251 258 260 270 275 280 284 285 287 291 290 303 306 313 308 305 309 305 308 316
226 225 225 220 219 225 226 226 221 222 224 217 214 213 212 216 219 217 224 224 224 230 230 240 245 250 247 250 246 246 251 260 266 270 275 280 280 280 284 288 292 294 301 307 308 306 303 304 307
225 225 223 219 221 225 230 227 223 216 220 220 218 212 216 213 214 219 223 228 226 223 240 245 244 253 248 245 247 247 250 251 257 266 269 274 277 279 282 283 287 296 303 303 307 308 308 306 302
223 224 220 219 220 224 228 228 226 218 217 222 220 220 216 216 214 223 217 208 223 229 238 241 250 247 251 242 242 242 244 254 256 260 265 274 280 280 280 285 290 293 299 301 302 304 304 307 315
226 220 217 214 217 221 226 228 226 221 217 221 221 220 216 217 215 223 217 215 216 227 236 242 248 250 248 241 241 244 248 256 258 261 269 273 276 282 282 283 285 289 292 292 294 300 302 304 306
225 220 216 214 218 220 223 227 225 221 218 218 220 220 218 216 214 214 225 233 231 233 238 241 248 241 242 245 242 240 246 250 254 259 265 274 276 278 280 281 282 286 287 290 297 298 300 298 297
225 219 215 215 217 220 221 225 225 220 217 216 217 220 221 212 209 205 229 231 229 232 235 239 239 239 233 240 239 240 247 250 256 260 267 274 276 281 284 284 285 286 290 292 291 294 296 297 293
223 221 216 219 218 220 221 225 225 222 216 214 214 218 220 213 207 205 209 226 221 239 234 235 242 238 237 243 242 245 256 252 256 263 273 278 289 289 290 289 290 288 289 290 293 295 295 294 294
221 217 216 219 220 221 221 222 225 222 215 215 212 215 218 218 217 208 214 220 226 231 238 234 236 238 238 238 240 247 260 264 270 282 291 295 294 295 295 293 289 290 290 294 294 292 292 293 294
216 215 213 216 221 223 223 220 226 221 217 213 213 215 219 220 220 215 218 214 219 223 230 232 231 234 238 244 247 252 264 269 278 290 296 300 299 301 297 292 291 290 294 294 294 293 293 294 294
215 212 212 212 217 222 225 222 223 221 218 213 213 214 217 221 220 218 208 211 219 224 225 232 232 236 243 249 253 261 267 278 288 295 300 300 298 299 293 290 291 292 294 294 293 290 291 294 296
213 210 212 210 213 219 225 225 219 222 219 215 213 215 217 218 221 216 220 224 220 218 222 231 239 235 241 247 253 261 269 279 288 295 296 297 297 296 297 295 298 294 297 296 293 294 293 294 295
212 209 209 209 212 216 223 226 220 224 218 215 214 216 215 217 219 224 220 224 216 214 229 233 238 235 244 246 256 266 271 277 289 297 297 298 296 294 295 295 300 302 300 299 301 294 294 298 299
210 208 207 208 210 216 222 223 222 221 218 217 215 218 217 216 216 223 227 225 224 223 231 237 239 243 245 250 260 267 281 282 285 293 298 296 296 299 297 297 298 301 302 299 296 295 297 298 295
209 206 205 206 208 215 218 221 223 220 220 216 217 217 218 218 218 220 225 229 232 235 238 239 241 242 247 254 264 272 275 281 292 300 296 299 305 301 298 303 309 305 304 297 290 291 294 293 294
207 205 203 205 208 212 214 219 224 222 218 216 218 216 219 221 217 222 224 229 234 235 238 241 243 245 247 256 264 269 277 287 300 291 300 304 305 315 303 303 306 304 301 293 293 296 298 298 298
208 204 202 204 210 211 212 218 226 223 214 217 217 216 218 223 222 222 226 228 234 237 238 241 245 250 250 252 258 268 274 287 292 305 307 306 310 311 306 306 304 300 302 297 297 303 301 298 298
209 203 202 203 210 210 212 217 226 223 214 214 215 217 218 221 225 226 227 229 234 238 239 240 243 246 248 254 258 265 274 283 290 302 296 294 292 300 295 296 289 296 294 294 284 288 293 295 294
209 203 201 202 210 211 212 213 225 222 217 210 214 217 218 220 223 227 230 232 235 238 239 239 243 246 249 252 252 263 272 276 302 303 273 244 266 273 278 274 278 280 287 295 290 292 292 292 292
207 204 201 202 206 210 212 212 224 221 216 211 212 215 220 222 222 226 230 234 236 238 240 242 241 244 248 250 250 260 261 269 262 302 274 238 241 259 266 271 277 279 286 290 287 287 288 293 295
207 204 203 202 204 209 211 212 223 220 214 209 210 212 217 220 224 226 229 232 237 240 241 242 244 243 244 245 249 250 252 259 263 248 237 234 243 246 256 265 275 279 284 285 286 287 287 288 290
207 204 204 202 203 206 209 211 221 221 213 208 210 210 213 219 226 227 231 234 238 239 240 242 245 247 244 242 245 244 247 243 226 221 230 236 246 253 257 265 274 278 280 282 282 285 285 287 291
205 204 203 202 203 203 206 212 219 218 213 209 211 210 213 216 220 225 230 234 238 241 242 243 245 248 247 244 243 240 239 238 230 233 237 251 261 262 266 270 275 280 280 278 281 281 285 287 293
205 205 204 203 202 202 205 209 214 215 210 210 208 208 212 217 219 224 227 231 237 241 242 243 245 247 246 244 241 243 242 242 241 238 245 253 262 269 272 277 277 282 279 282 284 288 289 296 300
206 203 205 201 202 203 206 207 211 212 209 209 207 207 209 216 222 227 229 231 235 240 243 243 245 245 245 246 246 246 247 243 244 248 253 258 261 263 269 274 277 287 285 286 288 291 293 298 300
202 202 202 201 201 203 203 205 209 210 208 207 205 206 208 217 223 227 233 239 243 245 246 246 247 248 247 247 248 247 246 247 249 248 254 261 263 264 270 273 275 284 283 286 290 291 296 299 302
201 201 201 200 203 203 202 205 206 211 211 208 208 205 209 216 220 226 230 236 241 245 248 249 249 251 252 251 250 251 252 250 251 255 258 262 267 269 271 277 284 282 286 289 291 295 297 300 300
193 190 197 200 201 203 203 205 207 210 209 207 208 207 210 215 220 224 227 231 238 244 246 248 253 252 253 252 254 254 253 254 254 257 262 267 270 272 275 278 281 285 288 291 293 295 297 300 302
Height
10880 10887 10894 10901 10908 10916 10919 10920 10928 10934 10939 10944 10949 10954 10960 10965 10972 10975 10978 10980 10982 10985 10988 10990 10993 10994 10995 10996 10997 10996 10996 10996 10998 10998 10999 10999 10999 11000 11000 10999 10998 10997 10997 10996 10994 10993 10993 10991 10990
10869 10876 10884 10894 10905 10909 10909 10910 10917 10927 10933 10938 10944 10951 10956 10962 10967 10970 10975 10978 10981 10983 10984 10988 10991 10993 10993 10994 10993 10994 10994 10993 10994 10995 10996 10997 10997 10997 10997 10997 10996 10995 10995 10993 10992 10991 10989 10987 10987
10856 10864 10873 10886 10900 10903 10895 10896 10908 10919 10927 10934 10939 10945 10951 10956 10961 10966 10970 10974 10976 10980 10982 10985 10987 10990 10991 10990 10990 10991 10992 10992 10992 10992 10993 10993 10994 10993 10994 10993 10992 10992 10992 10991 10989 10988 10986 10983 10983
10842 10853 10865 10881 10891 10881 10878 10885 10900 10910 10918 10928 10934 10941 10946 10952 10956 10961 10965 10968 10971 10974 10977 10981 10984 10985 10987 10988 10987 10988 10988 10989 10989 10990 10989 10990 10990 10989 10990 10989 10988 10987 10987 10986 10985 10984 10983 10981 10979
10827 10841 10857 10873 10875 10870 10862 10875 10887 10900 10909 10920 10929 10935 10941 10944 10950 10954 10959 10961 10967 10970 10973 10976 10979 10981 10981 10982 10983 10984 10985 10985 10985 10986 10986 10987 10987 10987 10986 10986 10985 10984 10983 10982 10981 10980 10979 10977 10974
10812 10828 10848 10862 10855 10850 10847 10857 10872 10889 10901 10909 10919 10930 10935 10939 10943 10947 10953 10956 10960 10964 10969 10971 10974 10976 10977 10977 10978 10980 10980 10981 10982 10982 10983 10984 10984 10984 10983 10982 10982 10981 10980 10978 10976 10975 10973 10971 10969
10798 10812 10831 10839 10832 10830 10834 10840 10861 10876 10892 10898 10910 10920 10925 10932 10937 10941 10947 10952 10954 10958 10961 10965 10969 10971 10972 10973 10974 10975 10976 10977 10978 10979 10980 10980 10980 10980 10979 10978 10977 10976 10975 10972 10971 10969 10967 10966 10965
10783 10796 10813 10821 10817 10817 10820 10827 10843 10864 10879 10893 10903 10908 10915 10924 10932 10936 10941 10944 10948 10950 10953 10957 10962 10964 10966 10967 10968 10969 10971 10972 10973 10975 10975 10976 10976 10975 10974 10973 10971 10970 10968 10967 10967 10964 10961 10959 10956
10766 10782 10797 10798 10797 10799 10808 10812 10826 10850 10871 10885 10893 10900 10911 10919 10927 10928 10933 10937 10941 10943 10947 10951 10955 10957 10959 10961 10963 10965 10966 10967 10968 10969 10970 10971 10971 10970 10969 10968 10965 10963 10962 10961 10959 10956 10954 10951 10948
10749 10771 10776 10777 10778 10782 10792 10797 10813 10839 10861 10874 10884 10892 10902 10910 10916 10921 10927 10930 10935 10938 10942 10945 10948 10951 10954 10957 10958 10959 10960 10960 10961 10963 10963 10964 10965 10964 10963 10961 10959 10956 10955 10954 10953 10951 10947 10944 10940
10733 10750 10754 10758 10762 10765 10774 10787 10797 10825 10849 10862 10870 10881 10890 10899 10906 10915 10918 10923 10928 10930 10934 10939 10942 10946 10948 10950 10951 10953 10953 10954 10956 10958 10958 10958 10958 10957 10956 10953 10951 10950 10948 10947 10945 10942 10938 10935 10933
10710 10727 10732 10739 10747 10755 10760 10773 10780 10812 10834 10849 10864 10872 10883 10891 10896 10903 10907 10914 10919 10922 10929 10933 10937 10938 10941 10943 10946 10947 10948 10949 10950 10952 10952 10952 10951 10949 10948 10944 10942 10941 10940 10938 10936 10932 10928 10926 10925
10685 10703 10712 10719 10732 10742 10742 10754 10764 10798 10819 10838 10851 10863 10870 10878 10888 10897 10902 10907 10912 10918 10923 10927 10930 10933 10936 10938 10941 10943 10944 10946 10947 10948 10947 10947 10945 10943 10940 10936 10934 10932 10929 10928 10926 10922 10918 10916 10915
10665 10684 10695 10703 10715 10727 10731 10736 10760 10780 10801 10826 10840 10849 10857 10863 10872 10883 10887 10893 10901 10909 10915 10919 10922 10925 10927 10930 10934 10937 10939 10941 10942 10942 10941 10940 10936 10934 10931 10928 10925 10920 10918 10915 10913 10910 10908 10907 10904
10642 10661 10674 10690 10700 10713 10714 10723 10768 10756 10787 10811 10825 10831 10838 10850 10862 10867 10877 10887 10893 10897 10903 10908 10911 10914 10917 10922 10929 10933 10935 10935 10936 10935 10932 10930 10926 10923 10920 10918 10912 10909 10905 10903 10901 10900 10897 10894 10892
10615 10637 10653 10669 10680 10693 10698 10731 10736 10740 10770 10793 10807 10815 10830 10845 10852 10860 10868 10880 10881 10887 10892 10898 10902 10906 10913 10920 10925 10930 10931 10929 10928 10926 10925 10919 10914 10911 10907 10906 10903 10900 10896 10892 10889 10887 10885 10882 10879
10586 10608 10628 10644 10655 10668 10694 10715 10716 10728 10749 10774 10789 10803 10819 10830 10841 10849 10860 10864 10870 10877 10879 10886 10894 10901 10909 10917 10920 10923 10923 10923 10922 10921 10915 10911 10904 10900 10896 10895 10892 10887 10883 10880 10879 10875 10873 10868 10866
10558 10584 10606 10626 10639 10652 10679 10692 10692 10709 10731 10755 10769 10789 10805 10814 10827 10835 10844 10851 10858 10861 10871 10878 10886 10892 10902 10911 10914 10915 10916 10920 10920 10911 10908 10903 10898 10891 10884 10881 10878 10874 10868 10866 10865 10862 10858 10854 10853
10537 10563 10588 10610 10621 10637 10659 10670 10669 10689 10717 10734 10757 10783 10792 10801 10814 10825 10834 10842 10844 10851 10858 10864 10874 10888 10896 10903 10907 10911 10914 10919 10914 10909 10905 10895 10886 10883 10877 10871 10869 10866 10859 10855 10855 10849 10844 10841 10842
10521 10548 10572 10591 10600 10623 10641 10660 10646 10672 10702 10724 10745 10764 10782 10791 10805 10818 10826 10831 10835 10839 10841 10856 10868 10876 10889 10898 10901 10906 10912 10915 10906 10905 10896 10882 10877 10881 10878 10872 10866 10860 10854 10850 10843 10838 10834 10832 10828
10502 10527 10546 10567 10578 10609 10623 10637 10622 10661 10690 10716 10735 10749 10762 10779 10796 10805 10810 10814 10820 10821 10836 10850 10859 10869 10881 10889 10895 10902 10909 10906 10899 10893 10891 10881 10889 10874 10868 10862 10855 10847 10846 10843 10834 10828 10823 10818 10815
10476 10502 10521 10539 10563 10583 10595 10623 10608 10646 10683 10710 10727 10745 10757 10774 10785 10792 10798 10805 10805 10805 10830 10836 10848 10861 10872 10881 10890 10896 10904 10897 10888 10885 10887 10884 10876 10857 10851 10846 10839 10834 10832 10829 10825 10817 10810 10807 10803
10458 10478 10501 10517 10545 10564 10590 10608 10602 10633 10664 10697 10719 10736 10750 10765 10777 10785 10789 10792 10792 10808 10817 10825 10837 10852 10862 10872 10883 10889 10891 10887 10881 10865 10862 10858 10851 10843 10838 10838 10831 10824 10821 10818 10811 10806 10796 10790 10786
10437 10462 10482 10501 10522 10541 10570 10600 10586 10621 10670 10701 10714 10729 10743 10759 10767 10772 10782 10784 10789 10793 10805 10819 10828 10838 10851 10864 10872 10876 10877 10876 10865 10848 10846 10845 10837 10834 10831 10827 10822 10815 10808 10801 10794 10789 10781 10777 10772
10424 10441 10459 10484 10499 10540 10562 10579 10588 10632 10666 10696 10712 10725 10739 10749 10757 10762 10767 10772 10778 10784 10800 10810 10818 10827 10840 10852 10855 10862 10861 10857 10849 10838 10839 10840 10841 10835 10829 10819 10806 10799 10788 10783 10776 10769 10763 10758 10750
10409 10427 10447 10476 10504 10534 10546 10563 10583 10629 10662 10682 10697 10711 10725 10740 10747 10752 10759 10765 10771 10780 10788 10799 10804 10814 10827 10836 10843 10846 10843 10839 10833 10833 10832 10829 10825 10819 10812 10803 10792 10780 10773 10769 10761 10752 10747 10738 10732
10403 10426 10443 10473 10503 10517 10537 10576 10595 10617 10641 10660 10679 10699 10716 10729 10736 10743 10750 10758 10765 10772 10775 10787 10791 10802 10815 10825 10828 10823 10827 10827 10825 10825 10822 10818 10814 10810 10800 10790 10783 10770 10763 10753 10747 10738 10731 10723 10717
10394 10402 10434 10467 10481 10497 10536 10558 10585 10599 10623 10648 10672 10694 10712 10722 10727 10737 10748 10754 10759 10762 10765 10774 10781 10792 10803 10812 10808 10807 10811 10814 10814 10816 10811 10805 10804 10797 10785 10783 10773 10756 10749 10739 10733 10726 10717 10710 10700
10392 10420 10441 10456 10474 10497 10533 10548 10576 10598 10630 10658 10676 10696 10709 10714 10722 10734 10743 10748 10749 10752 10760 10766 10775 10782 10791 10792 10792 10797 10801 10804 10805 10803 10799 10796 10791 10782 10778 10770 10758 10745 10733 10727 10722 10712 10706 10697 10686
10392 10409 10426 10446 10471 10503 10529 10554 10579 10600 10627 10651 10670 10688 10698 10706 10716 10726 10735 10741 10741 10744 10750 10759 10768 10776 10777 10775 10781 10785 10791 10794 10795 10793 10789 10785 10781 10774 10766 10758 10743 10734 10724 10717 10708 10702 10697 10682 10667